Data supplied by UK-AIR on 6/6/2017
All Data GMT hour ending 
Status: R =Ratified P=Provisional,P*=As supplied
,,Manchester South,,,,,,,,,,,,,,,,,,,,,,,
Date,time,"Nitric oxide",status,unit,"Nitrogen dioxide",status,unit,"Nitrogen oxides as nitrogen dioxide",status,unit,"Ozone",status,unit
 
01-01-2016,01:00,0.49393,R,ugm-3,4.92788,R,ugm-3,5.68523,R,ugm-3,54.47729,R,ugm-3
01-01-2016,02:00,0.69974,R,ugm-3,9.73016,R,ugm-3,10.80308,R,ugm-3,48.75495,R,ugm-3
01-01-2016,03:00,1.01873,R,ugm-3,11.75279,R,ugm-3,13.31483,R,ugm-3,46.34614,R,ugm-3
01-01-2016,04:00,1.38918,R,ugm-3,12.46424,R,ugm-3,14.59429,R,ugm-3,43.24931,R,ugm-3
01-01-2016,05:00,0.83351,R,ugm-3,9.33539,R,ugm-3,10.61342,R,ugm-3,49.00841,R,ugm-3
01-01-2016,06:00,0.89525,R,ugm-3,9.85655,R,ugm-3,11.22924,R,ugm-3,48.51946,R,ugm-3
01-01-2016,07:00,1.75963,R,ugm-3,13.55389,R,ugm-3,16.25195,R,ugm-3,43.14055,R,ugm-3
01-01-2016,08:00,1.97572,R,ugm-3,14.64449,R,ugm-3,17.67389,R,ugm-3,44.00918,R,ugm-3
01-01-2016,09:00,2.50053,R,ugm-3,23.55292,R,ugm-3,27.38700,R,ugm-3,37.27269,R,ugm-3
01-01-2016,10:00,1.51266,R,ugm-3,12.41691,R,ugm-3,14.73629,R,ugm-3,52.92048,R,ugm-3
01-01-2016,11:00,1.94485,R,ugm-3,11.04325,R,ugm-3,14.02532,R,ugm-3,54.60435,R,ugm-3
01-01-2016,12:00,1.85224,R,ugm-3,9.71646,R,ugm-3,12.55652,R,ugm-3,57.10446,R,ugm-3
01-01-2016,13:00,2.03747,R,ugm-3,9.43245,R,ugm-3,12.55652,R,ugm-3,57.43026,R,ugm-3
01-01-2016,14:00,2.40791,R,ugm-3,10.52258,R,ugm-3,14.21466,R,ugm-3,55.69101,R,ugm-3
01-01-2016,15:00,2.25356,R,ugm-3,13.27036,R,ugm-3,16.72577,R,ugm-3,51.34437,R,ugm-3
01-01-2016,16:00,2.03747,R,ugm-3,15.11783,R,ugm-3,18.24190,R,ugm-3,47.86736,R,ugm-3
01-01-2016,17:00,1.82137,R,ugm-3,13.41188,R,ugm-3,16.20461,R,ugm-3,50.04068,R,ugm-3
01-01-2016,18:00,1.75963,R,ugm-3,12.22757,R,ugm-3,14.92563,R,ugm-3,51.45314,R,ugm-3
01-01-2016,19:00,1.88311,R,ugm-3,11.27945,R,ugm-3,14.16684,R,ugm-3,51.50752,R,ugm-3
01-01-2016,20:00,1.54353,R,ugm-3,9.99998,R,ugm-3,12.36670,R,ugm-3,53.40892,R,ugm-3
01-01-2016,21:00,1.26570,R,ugm-3,7.63040,R,ugm-3,9.57111,R,ugm-3,58.73395,R,ugm-3
01-01-2016,22:00,1.26570,R,ugm-3,7.48839,R,ugm-3,9.42910,R,ugm-3,55.69151,R,ugm-3
01-01-2016,23:00,0.89525,R,ugm-3,6.20845,R,ugm-3,7.58115,R,ugm-3,57.37538,R,ugm-3
01-01-2016,24:00,0.89525,R,ugm-3,5.35548,R,ugm-3,6.72818,R,ugm-3,58.02747,R,ugm-3
02-01-2016,01:00,0.61658,R,ugm-3,4.74045,R,ugm-3,5.68586,R,ugm-3,57.59324,R,ugm-3
02-01-2016,02:00,0.57542,R,ugm-3,3.85560,R,ugm-3,4.73790,R,ugm-3,57.81011,R,ugm-3
02-01-2016,03:00,0.52449,R,ugm-3,3.60219,R,ugm-3,4.40640,R,ugm-3,56.50625,R,ugm-3
02-01-2016,04:00,0.58592,R,ugm-3,3.60315,R,ugm-3,4.50155,R,ugm-3,53.02874,R,ugm-3
02-01-2016,05:00,0.52387,R,ugm-3,3.88763,R,ugm-3,4.69088,R,ugm-3,49.98630,R,ugm-3
02-01-2016,06:00,0.86313,R,ugm-3,4.59908,R,ugm-3,5.92253,R,ugm-3,47.81298,R,ugm-3
02-01-2016,07:00,0.98661,R,ugm-3,4.88357,R,ugm-3,6.39636,R,ugm-3,47.86736,R,ugm-3
02-01-2016,08:00,1.04836,R,ugm-3,6.16351,R,ugm-3,7.77097,R,ugm-3,47.37842,R,ugm-3
02-01-2016,09:00,1.60403,R,ugm-3,7.72793,R,ugm-3,10.18741,R,ugm-3,46.34614,R,ugm-3
02-01-2016,10:00,1.41880,R,ugm-3,9.05378,R,ugm-3,11.22924,R,ugm-3,42.59772,R,ugm-3
02-01-2016,11:00,1.94298,R,ugm-3,11.18813,R,ugm-3,14.16732,R,ugm-3,42.10777,R,ugm-3
02-01-2016,12:00,2.62151,R,ugm-3,11.80586,R,ugm-3,15.82546,R,ugm-3,39.39163,R,ugm-3
02-01-2016,13:00,4.07088,R,ugm-3,16.54886,R,ugm-3,22.79078,R,ugm-3,33.46889,R,ugm-3
02-01-2016,14:00,4.50275,R,ugm-3,23.46781,R,ugm-3,30.37193,R,ugm-3,29.61120,R,ugm-3
02-01-2016,15:00,3.33092,R,ugm-3,20.33705,R,ugm-3,25.44438,R,ugm-3,32.87118,R,ugm-3
02-01-2016,16:00,4.34840,R,ugm-3,26.40541,R,ugm-3,33.07286,R,ugm-3,25.10241,R,ugm-3
02-01-2016,17:00,6.59978,R,ugm-3,36.12569,R,ugm-3,46.24521,R,ugm-3,16.08235,R,ugm-3
02-01-2016,18:00,22.51283,R,ugm-3,51.81106,R,ugm-3,86.33025,R,ugm-3,5.05311,R,ugm-3
02-01-2016,19:00,28.00189,R,ugm-3,56.56745,R,ugm-3,99.50307,R,ugm-3,1.52072,R,ugm-3
02-01-2016,20:00,32.22743,R,ugm-3,57.38456,R,ugm-3,106.79926,R,ugm-3,1.35807,R,ugm-3
02-01-2016,21:00,56.68324,R,ugm-3,61.48783,R,ugm-3,148.40092,R,ugm-3,0.92351,R,ugm-3
02-01-2016,22:00,31.48747,R,ugm-3,50.60618,R,ugm-3,98.88629,R,ugm-3,0.86963,R,ugm-3
02-01-2016,23:00,49.83681,R,ugm-3,54.17013,R,ugm-3,130.58550,R,ugm-3,0.81524,R,ugm-3
02-01-2016,24:00,34.23215,R,ugm-3,51.23109,R,ugm-3,103.71966,R,ugm-3,0.76136,R,ugm-3
03-01-2016,01:00,20.27154,R,ugm-3,41.57010,R,ugm-3,72.65269,R,ugm-3,12.60484,R,ugm-3
03-01-2016,02:00,3.37187,R,ugm-3,30.77659,R,ugm-3,35.94671,R,ugm-3,14.99636,R,ugm-3
03-01-2016,03:00,1.51110,R,ugm-3,20.66361,R,ugm-3,22.98060,R,ugm-3,19.01703,R,ugm-3
03-01-2016,04:00,0.73996,R,ugm-3,11.42145,R,ugm-3,12.55604,R,ugm-3,31.02415,R,ugm-3
03-01-2016,05:00,0.52418,R,ugm-3,4.17164,R,ugm-3,4.97537,R,ugm-3,49.27982,R,ugm-3
03-01-2016,06:00,0.49331,R,ugm-3,2.70236,R,ugm-3,3.45876,R,ugm-3,60.63535,R,ugm-3
03-01-2016,07:00,0.83226,R,ugm-3,5.31006,R,ugm-3,6.58617,R,ugm-3,58.57080,R,ugm-3
03-01-2016,08:00,0.98661,R,ugm-3,6.02103,R,ugm-3,7.53382,R,ugm-3,61.23307,R,ugm-3
03-01-2016,09:00,1.07923,R,ugm-3,5.73654,R,ugm-3,7.39133,R,ugm-3,64.65619,R,ugm-3
03-01-2016,10:00,0.95574,R,ugm-3,5.64188,R,ugm-3,7.10733,R,ugm-3,68.78579,R,ugm-3
03-01-2016,11:00,1.20271,R,ugm-3,5.35787,R,ugm-3,7.20200,R,ugm-3,68.45950,R,ugm-3
03-01-2016,12:00,1.57316,R,ugm-3,7.63231,R,ugm-3,10.04445,R,ugm-3,64.54792,R,ugm-3
03-01-2016,13:00,2.09702,R,ugm-3,9.90962,R,ugm-3,13.12501,R,ugm-3,62.59164,R,ugm-3
03-01-2016,14:00,2.09734,R,ugm-3,13.65190,R,ugm-3,16.86777,R,ugm-3,56.99520,R,ugm-3
03-01-2016,15:00,2.62151,R,ugm-3,19.52949,R,ugm-3,23.54909,R,ugm-3,48.68211,R,ugm-3
03-01-2016,16:00,2.74468,R,ugm-3,22.27823,R,ugm-3,26.48669,R,ugm-3,43.35708,R,ugm-3
03-01-2016,17:00,2.52890,R,ugm-3,24.07790,R,ugm-3,27.95549,R,ugm-3,41.07550,R,ugm-3
03-01-2016,18:00,1.29501,R,ugm-3,18.43602,R,ugm-3,20.42168,R,ugm-3,39.66254,R,ugm-3
03-01-2016,19:00,0.92487,R,ugm-3,17.96077,R,ugm-3,19.37888,R,ugm-3,38.19620,R,ugm-3
03-01-2016,20:00,0.89400,R,ugm-3,15.30765,R,ugm-3,16.67843,R,ugm-3,49.11617,R,ugm-3
03-01-2016,21:00,0.64735,R,ugm-3,12.13242,R,ugm-3,13.12501,R,ugm-3,55.09429,R,ugm-3
03-01-2016,22:00,0.86313,R,ugm-3,13.60170,R,ugm-3,14.92515,R,ugm-3,52.26838,R,ugm-3
03-01-2016,23:00,0.77083,R,ugm-3,9.10015,R,ugm-3,10.28208,R,ugm-3,59.49481,R,ugm-3
03-01-2016,24:00,0.61648,R,ugm-3,7.82021,R,ugm-3,8.76547,R,ugm-3,61.50498,R,ugm-3
04-01-2016,01:00,0.65857,R,ugm-3,6.82380,R,ugm-3,7.83360,R,ugm-3,60.34531,R,ugm-3
04-01-2016,02:00,0.61741,R,ugm-3,7.70865,R,ugm-3,8.65534,R,ugm-3,56.28872,R,ugm-3
04-01-2016,03:00,0.89525,R,ugm-3,10.23618,R,ugm-3,11.60888,R,ugm-3,51.94258,R,ugm-3
04-01-2016,04:00,0.77177,R,ugm-3,9.33539,R,ugm-3,10.51875,R,ugm-3,52.32276,R,ugm-3
04-01-2016,05:00,0.77177,R,ugm-3,6.82428,R,ugm-3,8.00764,R,ugm-3,56.34260,R,ugm-3
04-01-2016,06:00,1.14222,R,ugm-3,8.10422,R,ugm-3,9.85559,R,ugm-3,54.33243,R,ugm-3
04-01-2016,07:00,2.16095,R,ugm-3,13.22255,R,ugm-3,16.53595,R,ugm-3,48.79087,R,ugm-3
04-01-2016,08:00,4.04406,R,ugm-3,19.00595,R,ugm-3,25.20675,R,ugm-3,45.36825,R,ugm-3
04-01-2016,09:00,5.64933,R,ugm-3,22.23090,R,ugm-3,30.89309,R,ugm-3,42.10777,R,ugm-3
04-01-2016,10:00,5.52585,R,ugm-3,21.47259,R,ugm-3,29.94545,R,ugm-3,41.51056,R,ugm-3
04-01-2016,11:00,5.03192,R,ugm-3,20.00332,R,ugm-3,27.71882,R,ugm-3,38.41323,R,ugm-3
04-01-2016,12:00,6.23588,R,ugm-3,24.64878,R,ugm-3,34.21032,R,ugm-3,36.40307,R,ugm-3
04-01-2016,13:00,4.44538,R,ugm-3,24.21942,R,ugm-3,31.03557,R,ugm-3,40.26075,R,ugm-3
04-01-2016,14:00,6.05065,R,ugm-3,30.33416,R,ugm-3,39.61170,R,ugm-3,31.40434,R,ugm-3
04-01-2016,15:00,5.46411,R,ugm-3,29.95405,R,ugm-3,38.33224,R,ugm-3,30.75274,R,ugm-3
04-01-2016,16:00,4.66147,R,ugm-3,34.73817,R,ugm-3,41.88566,R,ugm-3,29.06787,R,ugm-3
04-01-2016,17:00,7.03851,R,ugm-3,45.54475,R,ugm-3,56.33699,R,ugm-3,21.67879,R,ugm-3
04-01-2016,18:00,7.90289,R,ugm-3,46.21030,R,ugm-3,58.32790,R,ugm-3,23.25489,R,ugm-3
04-01-2016,19:00,6.32849,R,ugm-3,43.93252,R,ugm-3,53.63606,R,ugm-3,23.90649,R,ugm-3
04-01-2016,20:00,3.82796,R,ugm-3,33.36308,R,ugm-3,39.23255,R,ugm-3,32.97944,R,ugm-3
04-01-2016,21:00,2.62401,R,ugm-3,23.36358,R,ugm-3,27.38700,R,ugm-3,41.61933,R,ugm-3
04-01-2016,22:00,2.37704,R,ugm-3,24.45275,R,ugm-3,28.09749,R,ugm-3,35.09937,R,ugm-3
04-01-2016,23:00,1.85224,R,ugm-3,18.62393,R,ugm-3,21.46399,R,ugm-3,45.53090,R,ugm-3
04-01-2016,24:00,1.08047,R,ugm-3,12.36862,R,ugm-3,14.02532,R,ugm-3,51.61629,R,ugm-3
05-01-2016,01:00,1.02902,R,ugm-3,11.49986,R,ugm-3,13.07768,R,ugm-3,49.11750,R,ugm-3
05-01-2016,02:00,0.82322,R,ugm-3,11.75231,R,ugm-3,13.01456,R,ugm-3,41.14801,R,ugm-3
05-01-2016,03:00,0.77177,R,ugm-3,9.05091,R,ugm-3,10.23427,R,ugm-3,46.99774,R,ugm-3
05-01-2016,04:00,0.49393,R,ugm-3,6.91847,R,ugm-3,7.67582,R,ugm-3,49.82315,R,ugm-3
05-01-2016,05:00,1.04960,R,ugm-3,9.95169,R,ugm-3,11.56106,R,ugm-3,46.99774,R,ugm-3
05-01-2016,06:00,1.57440,R,ugm-3,12.65358,R,ugm-3,15.06763,R,ugm-3,43.35708,R,ugm-3
05-01-2016,07:00,2.80923,R,ugm-3,19.99949,R,ugm-3,24.30692,R,ugm-3,38.03355,R,ugm-3
05-01-2016,08:00,9.78600,R,ugm-3,40.76398,R,ugm-3,55.76898,R,ugm-3,23.36266,R,ugm-3
05-01-2016,09:00,20.71422,R,ugm-3,56.08454,R,ugm-3,87.84591,R,ugm-3,8.53012,R,ugm-3
05-01-2016,10:00,21.45512,R,ugm-3,53.57486,R,ugm-3,86.47225,R,ugm-3,8.36747,R,ugm-3
05-01-2016,11:00,16.33059,R,ugm-3,46.50674,R,ugm-3,71.54663,R,ugm-3,12.11590,R,ugm-3
05-01-2016,12:00,10.18732,R,ugm-3,33.89428,R,ugm-3,49.51463,R,ugm-3,22.54792,R,ugm-3
05-01-2016,13:00,7.56332,R,ugm-3,27.82496,R,ugm-3,39.42188,R,ugm-3,38.90218,R,ugm-3
05-01-2016,14:00,5.92717,R,ugm-3,27.72790,R,ugm-3,36.81610,R,ugm-3,38.08694,R,ugm-3
05-01-2016,15:00,6.97677,R,ugm-3,32.23088,R,ugm-3,42.92845,R,ugm-3,33.46889,R,ugm-3
05-01-2016,16:00,10.00210,R,ugm-3,47.68197,R,ugm-3,63.01831,R,ugm-3,15.97358,R,ugm-3
05-01-2016,17:00,12.28653,R,ugm-3,44.22656,R,ugm-3,63.06564,R,ugm-3,22.38477,R,ugm-3
05-01-2016,18:00,59.98172,R,ugm-3,71.35538,R,ugm-3,163.32607,R,ugm-3,2.01067,R,ugm-3
05-01-2016,19:00,122.34049,R,ugm-3,82.30253,R,ugm-3,269.88865,R,ugm-3,0.76136,R,ugm-3
05-01-2016,20:00,61.80309,R,ugm-3,71.12157,R,ugm-3,165.88499,R,ugm-3,0.86963,R,ugm-3
05-01-2016,21:00,64.79755,R,ugm-3,67.24111,R,ugm-3,166.59596,R,ugm-3,0.38068,R,ugm-3
05-01-2016,22:00,41.86064,R,ugm-3,60.00325,R,ugm-3,124.18867,R,ugm-3,0.65259,R,ugm-3
05-01-2016,23:00,56.12289,R,ugm-3,61.16271,R,ugm-3,147.21660,R,ugm-3,0.43506,R,ugm-3
05-01-2016,24:00,44.42290,R,ugm-3,60.67024,R,ugm-3,128.78440,R,ugm-3,0.70698,R,ugm-3
06-01-2016,01:00,37.33294,R,ugm-3,56.15801,R,ugm-3,113.40105,R,ugm-3,0.58008,R,ugm-3
06-01-2016,02:00,41.94296,R,ugm-3,51.42776,R,ugm-3,115.73940,R,ugm-3,0.43506,R,ugm-3
06-01-2016,03:00,44.17594,R,ugm-3,48.11420,R,ugm-3,115.84969,R,ugm-3,0.70698,R,ugm-3
06-01-2016,04:00,39.94665,R,ugm-3,46.16488,R,ugm-3,107.41556,R,ugm-3,0.65259,R,ugm-3
06-01-2016,05:00,42.84850,R,ugm-3,42.71043,R,ugm-3,108.41054,R,ugm-3,0.65259,R,ugm-3
06-01-2016,06:00,64.30362,R,ugm-3,43.59639,R,ugm-3,142.19390,R,ugm-3,0.70698,R,ugm-3
06-01-2016,07:00,62.91444,R,ugm-3,45.53710,R,ugm-3,142.00456,R,ugm-3,1.95629,R,ugm-3
06-01-2016,08:00,61.67961,R,ugm-3,50.74723,R,ugm-3,145.32131,R,ugm-3,2.55350,R,ugm-3
06-01-2016,09:00,92.42680,R,ugm-3,55.48545,R,ugm-3,197.20457,R,ugm-3,1.84752,R,ugm-3
06-01-2016,10:00,160.77448,R,ugm-3,72.93367,R,ugm-3,319.45109,R,ugm-3,1.79264,R,ugm-3
06-01-2016,11:00,142.49904,R,ugm-3,67.59827,R,ugm-3,286.09374,R,ugm-3,1.24881,R,ugm-3
06-01-2016,12:00,96.37825,R,ugm-3,58.14478,R,ugm-3,205.92270,R,ugm-3,1.57511,R,ugm-3
06-01-2016,13:00,46.12079,R,ugm-3,40.77307,R,ugm-3,111.49062,R,ugm-3,6.24854,R,ugm-3
06-01-2016,14:00,24.11000,R,ugm-3,35.10011,R,ugm-3,72.06826,R,ugm-3,9.83381,R,ugm-3
06-01-2016,15:00,19.17069,R,ugm-3,39.07238,R,ugm-3,68.46702,R,ugm-3,7.28081,R,ugm-3
06-01-2016,16:00,11.11344,R,ugm-3,38.77594,R,ugm-3,55.81631,R,ugm-3,17.54969,R,ugm-3
06-01-2016,17:00,13.95355,R,ugm-3,41.43383,R,ugm-3,62.82897,R,ugm-3,13.03941,R,ugm-3
06-01-2016,18:00,21.42425,R,ugm-3,50.96908,R,ugm-3,83.81914,R,ugm-3,5.75909,R,ugm-3
06-01-2016,19:00,14.63270,R,ugm-3,46.88350,R,ugm-3,69.32000,R,ugm-3,10.21399,R,ugm-3
06-01-2016,20:00,4.75408,R,ugm-3,43.36211,R,ugm-3,50.65161,R,ugm-3,13.90953,R,ugm-3
06-01-2016,21:00,2.28443,R,ugm-3,26.67985,R,ugm-3,30.18260,R,ugm-3,29.12225,R,ugm-3
06-01-2016,22:00,1.48179,R,ugm-3,17.72314,R,ugm-3,19.99519,R,ugm-3,38.95656,R,ugm-3
06-01-2016,23:00,1.72876,R,ugm-3,15.97081,R,ugm-3,18.62153,R,ugm-3,38.03305,R,ugm-3
06-01-2016,24:00,0.89525,R,ugm-3,14.35857,R,ugm-3,15.73127,R,ugm-3,37.21831,R,ugm-3
07-01-2016,01:00,0.86521,R,ugm-3,15.79406,R,ugm-3,17.12070,R,ugm-3,35.86007,R,ugm-3
07-01-2016,02:00,0.70057,R,ugm-3,24.06945,R,ugm-3,25.14364,R,ugm-3,27.74622,R,ugm-3
07-01-2016,03:00,0.61804,R,ugm-3,23.59690,R,ugm-3,24.54455,R,ugm-3,35.15326,R,ugm-3
07-01-2016,04:00,0.64891,R,ugm-3,15.63660,R,ugm-3,16.63158,R,ugm-3,48.03001,R,ugm-3
07-01-2016,05:00,0.89650,R,ugm-3,16.29928,R,ugm-3,17.67389,R,ugm-3,47.21527,R,ugm-3
07-01-2016,06:00,1.01998,R,ugm-3,9.52377,R,ugm-3,11.08772,R,ugm-3,59.60308,R,ugm-3
07-01-2016,07:00,1.39074,R,ugm-3,7.86516,R,ugm-3,9.99759,R,ugm-3,63.13447,R,ugm-3
07-01-2016,08:00,2.62650,R,ugm-3,14.92563,R,ugm-3,18.95288,R,ugm-3,55.79927,R,ugm-3
07-01-2016,09:00,5.19157,R,ugm-3,29.18714,R,ugm-3,37.14744,R,ugm-3,40.80458,R,ugm-3
07-01-2016,10:00,3.15224,R,ugm-3,40.03723,R,ugm-3,44.87060,R,ugm-3,31.18780,R,ugm-3
07-01-2016,11:00,1.11259,R,ugm-3,19.28469,R,ugm-3,20.99064,R,ugm-3,63.95021,R,ugm-3
07-01-2016,12:00,0.80357,R,ugm-3,11.27658,R,ugm-3,12.50871,R,ugm-3,71.12226,R,ugm-3
07-01-2016,13:00,1.14346,R,ugm-3,12.60338,R,ugm-3,14.35666,R,ugm-3,69.65492,R,ugm-3
07-01-2016,14:00,1.20520,R,ugm-3,11.56106,R,ugm-3,13.40902,R,ugm-3,67.75352,R,ugm-3
07-01-2016,15:00,1.26695,R,ugm-3,11.84555,R,ugm-3,13.78817,R,ugm-3,67.21019,R,ugm-3
07-01-2016,16:00,1.11259,R,ugm-3,20.08986,R,ugm-3,21.79581,R,ugm-3,58.78833,R,ugm-3
07-01-2016,17:00,0.89619,R,ugm-3,21.93733,R,ugm-3,23.31146,R,ugm-3,56.23434,R,ugm-3
07-01-2016,18:00,0.83476,R,ugm-3,15.30383,R,ugm-3,16.58377,R,ugm-3,61.99343,R,ugm-3
07-01-2016,19:00,1.39074,R,ugm-3,30.60861,R,ugm-3,32.74104,R,ugm-3,45.31387,R,ugm-3
07-01-2016,20:00,1.26695,R,ugm-3,30.84576,R,ugm-3,32.78838,R,ugm-3,46.34564,R,ugm-3
07-01-2016,21:00,1.39043,R,ugm-3,29.09295,R,ugm-3,31.22491,R,ugm-3,47.10650,R,ugm-3
07-01-2016,22:00,9.70337,R,ugm-3,30.03964,R,ugm-3,44.91793,R,ugm-3,45.96596,R,ugm-3
07-01-2016,23:00,6.64374,R,ugm-3,24.21273,R,ugm-3,34.39966,R,ugm-3,46.40052,R,ugm-3
07-01-2016,24:00,0.52543,R,ugm-3,7.72315,R,ugm-3,8.52879,R,ugm-3,57.91871,R,ugm-3
08-01-2016,01:00,1.52462,R,ugm-3,10.48688,R,ugm-3,12.82459,R,ugm-3,54.74538,R,ugm-3
08-01-2016,02:00,0.57667,R,ugm-3,7.01314,R,ugm-3,7.89735,R,ugm-3,57.64580,R,ugm-3
08-01-2016,03:00,0.67978,R,ugm-3,5.25938,R,ugm-3,6.30169,R,ugm-3,59.98426,R,ugm-3
08-01-2016,04:00,2.65737,R,ugm-3,10.56656,R,ugm-3,14.64114,R,ugm-3,57.04758,R,ugm-3
08-01-2016,05:00,1.26695,R,ugm-3,8.95528,R,ugm-3,10.89790,R,ugm-3,56.17746,R,ugm-3
08-01-2016,06:00,2.31780,R,ugm-3,12.08270,R,ugm-3,15.63660,R,ugm-3,52.20751,R,ugm-3
08-01-2016,07:00,2.84291,R,ugm-3,14.16732,R,ugm-3,18.52639,R,ugm-3,49.97782,R,ugm-3
08-01-2016,08:00,5.84048,R,ugm-3,25.20771,R,ugm-3,34.16299,R,ugm-3,42.79928,R,ugm-3
08-01-2016,09:00,6.08776,R,ugm-3,27.81301,R,ugm-3,37.14744,R,ugm-3,42.14669,R,ugm-3
08-01-2016,10:00,6.02602,R,ugm-3,29.37648,R,ugm-3,38.61624,R,ugm-3,42.74490,R,ugm-3
08-01-2016,11:00,5.65495,R,ugm-3,27.48167,R,ugm-3,36.15247,R,ugm-3,45.08336,R,ugm-3
08-01-2016,12:00,5.77843,R,ugm-3,20.94331,R,ugm-3,29.80344,R,ugm-3,50.46726,R,ugm-3
08-01-2016,13:00,5.65526,R,ugm-3,16.91511,R,ugm-3,25.58638,R,ugm-3,55.14419,R,ugm-3
08-01-2016,14:00,3.61530,R,ugm-3,13.31483,R,ugm-3,18.85821,R,ugm-3,57.64580,R,ugm-3
08-01-2016,15:00,2.50302,R,ugm-3,13.93017,R,ugm-3,17.76808,R,ugm-3,55.03542,R,ugm-3
08-01-2016,16:00,1.94672,R,ugm-3,18.00523,R,ugm-3,20.99017,R,ugm-3,51.88122,R,ugm-3
08-01-2016,17:00,1.51422,R,ugm-3,18.05209,R,ugm-3,20.37386,R,ugm-3,55.14419,R,ugm-3
08-01-2016,18:00,2.37954,R,ugm-3,32.59904,R,ugm-3,36.24761,R,ugm-3,49.86905,R,ugm-3
08-01-2016,19:00,3.15162,R,ugm-3,41.03364,R,ugm-3,45.86605,R,ugm-3,37.85045,R,ugm-3
08-01-2016,20:00,2.31748,R,ugm-3,27.52948,R,ugm-3,31.08291,R,ugm-3,45.24651,R,ugm-3
08-01-2016,21:00,2.81204,R,ugm-3,29.37696,R,ugm-3,33.68869,R,ugm-3,42.47299,R,ugm-3
08-01-2016,22:00,5.34624,R,ugm-3,39.27940,R,ugm-3,47.47686,R,ugm-3,28.93166,R,ugm-3
08-01-2016,23:00,3.24454,R,ugm-3,32.83619,R,ugm-3,37.81108,R,ugm-3,33.01038,R,ugm-3
08-01-2016,24:00,2.50302,R,ugm-3,25.16037,R,ugm-3,28.99828,R,ugm-3,42.09231,R,ugm-3
09-01-2016,01:00,1.93623,R,ugm-3,24.38629,R,ugm-3,27.35513,R,ugm-3,38.57555,R,ugm-3
09-01-2016,02:00,2.14203,R,ugm-3,19.52216,R,ugm-3,22.80656,R,ugm-3,43.86881,R,ugm-3
09-01-2016,03:00,2.16313,R,ugm-3,18.05209,R,ugm-3,21.36884,R,ugm-3,45.02898,R,ugm-3
09-01-2016,04:00,2.41041,R,ugm-3,14.49866,R,ugm-3,18.19457,R,ugm-3,49.10769,R,ugm-3
09-01-2016,05:00,3.09019,R,ugm-3,14.92515,R,ugm-3,19.66337,R,ugm-3,49.43399,R,ugm-3
09-01-2016,06:00,2.47246,R,ugm-3,13.12501,R,ugm-3,16.91606,R,ugm-3,50.03220,R,ugm-3
09-01-2016,07:00,1.60683,R,ugm-3,10.99209,R,ugm-3,13.45587,R,ugm-3,51.44615,R,ugm-3
09-01-2016,08:00,2.03965,R,ugm-3,12.93519,R,ugm-3,16.06261,R,ugm-3,50.79356,R,ugm-3
09-01-2016,09:00,1.82293,R,ugm-3,15.30526,R,ugm-3,18.10038,R,ugm-3,48.67263,R,ugm-3
09-01-2016,10:00,1.94672,R,ugm-3,15.25745,R,ugm-3,18.24238,R,ugm-3,52.53381,R,ugm-3
09-01-2016,11:00,2.34867,R,ugm-3,14.35666,R,ugm-3,17.95790,R,ugm-3,57.70018,R,ugm-3
09-01-2016,12:00,2.28693,R,ugm-3,15.73079,R,ugm-3,19.23736,R,ugm-3,56.77567,R,ugm-3
09-01-2016,13:00,3.27541,R,ugm-3,18.24190,R,ugm-3,23.26413,R,ugm-3,54.98104,R,ugm-3
09-01-2016,14:00,3.27572,R,ugm-3,18.33705,R,ugm-3,23.35975,R,ugm-3,54.49159,R,ugm-3
09-01-2016,15:00,2.81173,R,ugm-3,19.61651,R,ugm-3,23.92777,R,ugm-3,49.43399,R,ugm-3
09-01-2016,16:00,2.84291,R,ugm-3,22.26963,R,ugm-3,26.62869,R,ugm-3,46.66046,R,ugm-3
09-01-2016,17:00,2.22518,R,ugm-3,19.90052,R,ugm-3,23.31242,R,ugm-3,52.47943,R,ugm-3
09-01-2016,18:00,1.88498,R,ugm-3,11.27706,R,ugm-3,14.16732,R,ugm-3,63.30161,R,ugm-3
09-01-2016,19:00,1.20520,R,ugm-3,8.67080,R,ugm-3,10.51875,R,ugm-3,67.10841,R,ugm-3
09-01-2016,20:00,1.32869,R,ugm-3,9.14510,R,ugm-3,11.18239,R,ugm-3,66.61896,R,ugm-3
09-01-2016,21:00,1.79237,R,ugm-3,9.99759,R,ugm-3,12.74586,R,ugm-3,70.58891,R,ugm-3
09-01-2016,22:00,1.66826,R,ugm-3,9.38225,R,ugm-3,11.94022,R,ugm-3,72.32916,R,ugm-3
09-01-2016,23:00,1.20520,R,ugm-3,6.91751,R,ugm-3,8.76547,R,ugm-3,74.34132,R,ugm-3
09-01-2016,24:00,1.05085,R,ugm-3,4.02725,R,ugm-3,5.63853,R,ugm-3,76.84293,R,ugm-3
10-01-2016,01:00,1.44188,R,ugm-3,4.48545,R,ugm-3,6.69630,R,ugm-3,78.81884,R,ugm-3
10-01-2016,02:00,1.27724,R,ugm-3,4.48545,R,ugm-3,6.44385,R,ugm-3,74.90328,R,ugm-3
10-01-2016,03:00,1.14346,R,ugm-3,2.65312,R,ugm-3,4.40640,R,ugm-3,75.80966,R,ugm-3
10-01-2016,04:00,0.71127,R,ugm-3,1.56203,R,ugm-3,2.65264,R,ugm-3,76.46225,R,ugm-3
10-01-2016,05:00,0.71096,R,ugm-3,1.51566,R,ugm-3,2.60578,R,ugm-3,76.24472,R,ugm-3
10-01-2016,06:00,0.64922,R,ugm-3,1.46784,R,ugm-3,2.46330,R,ugm-3,73.25367,R,ugm-3
10-01-2016,07:00,1.11259,R,ugm-3,3.41094,R,ugm-3,5.11689,R,ugm-3,74.45009,R,ugm-3
10-01-2016,08:00,1.20489,R,ugm-3,4.45469,R,ugm-3,6.30217,R,ugm-3,73.41681,R,ugm-3
10-01-2016,09:00,0.46337,R,ugm-3,3.41142,R,ugm-3,4.12192,R,ugm-3,69.39249,R,ugm-3
10-01-2016,10:00,0.89650,R,ugm-3,5.16423,R,ugm-3,6.53884,R,ugm-3,63.79105,R,ugm-3
10-01-2016,11:00,0.98911,R,ugm-3,4.59574,R,ugm-3,6.11235,R,ugm-3,64.22612,R,ugm-3
10-01-2016,12:00,0.98911,R,ugm-3,3.55390,R,ugm-3,5.07052,R,ugm-3,67.16279,R,ugm-3
10-01-2016,13:00,1.26695,R,ugm-3,3.93258,R,ugm-3,5.87520,R,ugm-3,66.51020,R,ugm-3
10-01-2016,14:00,1.11259,R,ugm-3,3.88524,R,ugm-3,5.59119,R,ugm-3,67.10841,R,ugm-3
10-01-2016,15:00,1.11259,R,ugm-3,5.73320,R,ugm-3,7.43915,R,ugm-3,65.42254,R,ugm-3
10-01-2016,16:00,0.92737,R,ugm-3,6.49103,R,ugm-3,7.91297,R,ugm-3,64.38927,R,ugm-3
10-01-2016,17:00,1.63771,R,ugm-3,15.92013,R,ugm-3,18.43124,R,ugm-3,58.46154,R,ugm-3
10-01-2016,18:00,1.85380,R,ugm-3,23.78672,R,ugm-3,26.62917,R,ugm-3,57.10197,R,ugm-3
10-01-2016,19:00,0.98911,R,ugm-3,11.13458,R,ugm-3,12.65119,R,ugm-3,63.08408,R,ugm-3
10-01-2016,20:00,0.92737,R,ugm-3,7.95983,R,ugm-3,9.38177,R,ugm-3,68.19606,R,ugm-3
10-01-2016,21:00,1.14346,R,ugm-3,10.09226,R,ugm-3,11.84555,R,ugm-3,69.44687,R,ugm-3
10-01-2016,22:00,1.76119,R,ugm-3,12.22518,R,ugm-3,14.92563,R,ugm-3,61.63387,R,ugm-3
10-01-2016,23:00,3.18311,R,ugm-3,20.18453,R,ugm-3,25.06523,R,ugm-3,52.15313,R,ugm-3
10-01-2016,24:00,1.94672,R,ugm-3,15.21011,R,ugm-3,18.19505,R,ugm-3,55.14419,R,ugm-3
11-01-2016,01:00,3.05173,R,ugm-3,16.54823,R,ugm-3,21.22748,R,ugm-3,53.07764,R,ugm-3
11-01-2016,02:00,1.60860,R,ugm-3,12.38025,R,ugm-3,14.84674,R,ugm-3,48.94454,R,ugm-3
11-01-2016,03:00,1.45373,R,ugm-3,13.92826,R,ugm-3,16.15728,R,ugm-3,46.60608,R,ugm-3
11-01-2016,04:00,1.33025,R,ugm-3,13.88045,R,ugm-3,15.92013,R,ugm-3,45.95349,R,ugm-3
11-01-2016,05:00,3.18623,R,ugm-3,22.92801,R,ugm-3,27.81349,R,ugm-3,27.46333,R,ugm-3
11-01-2016,06:00,23.04543,R,ugm-3,44.92988,R,ugm-3,80.26571,R,ugm-3,10.22397,R,ugm-3
11-01-2016,07:00,39.00681,R,ugm-3,51.77520,R,ugm-3,111.58481,R,ugm-3,8.81002,R,ugm-3
11-01-2016,08:00,70.65113,R,ugm-3,71.72210,R,ugm-3,180.05231,R,ugm-3,4.94884,R,ugm-3
11-01-2016,09:00,145.23062,R,ugm-3,87.14832,R,ugm-3,309.83217,R,ugm-3,1.14204,R,ugm-3
11-01-2016,10:00,83.58095,R,ugm-3,72.74481,R,ugm-3,200.90048,R,ugm-3,2.17531,R,ugm-3
11-01-2016,11:00,66.78450,R,ugm-3,68.17441,R,ugm-3,170.57588,R,ugm-3,2.01217,R,ugm-3
11-01-2016,12:00,42.40914,R,ugm-3,65.46392,R,ugm-3,130.49035,R,ugm-3,5.76458,R,ugm-3
11-01-2016,13:00,37.39811,R,ugm-3,68.83613,R,ugm-3,126.17910,R,ugm-3,7.17853,R,ugm-3
11-01-2016,14:00,15.96139,R,ugm-3,62.85192,R,ugm-3,87.32571,R,ugm-3,13.70447,R,ugm-3
11-01-2016,15:00,7.82618,R,ugm-3,48.31740,R,ugm-3,60.31738,R,ugm-3,18.05510,R,ugm-3
11-01-2016,16:00,12.58993,R,ugm-3,63.70968,R,ugm-3,83.01398,R,ugm-3,7.66798,R,ugm-3
11-01-2016,17:00,32.94369,R,ugm-3,77.13447,R,ugm-3,127.64742,R,ugm-3,0.27191,R,ugm-3
11-01-2016,18:00,15.43565,R,ugm-3,63.80004,R,ugm-3,87.46771,R,ugm-3,4.78569,R,ugm-3
11-01-2016,19:00,4.42355,R,ugm-3,50.92892,R,ugm-3,57.71160,R,ugm-3,8.75564,R,ugm-3
11-01-2016,20:00,2.69105,R,ugm-3,43.49312,R,ugm-3,47.61934,R,ugm-3,12.45367,R,ugm-3
11-01-2016,21:00,6.27953,R,ugm-3,50.40442,R,ugm-3,60.03290,R,ugm-3,6.52594,R,ugm-3
11-01-2016,22:00,6.68147,R,ugm-3,44.00806,R,ugm-3,54.25284,R,ugm-3,12.61682,R,ugm-3
11-01-2016,23:00,7.36188,R,ugm-3,37.84742,R,ugm-3,49.13547,R,ugm-3,22.35134,R,ugm-3
11-01-2016,24:00,1.17558,R,ugm-3,18.71429,R,ugm-3,20.51682,R,ugm-3,40.51521,R,ugm-3
12-01-2016,01:00,0.57750,R,ugm-3,10.23315,R,ugm-3,11.11864,R,ugm-3,49.30710,R,ugm-3
12-01-2016,02:00,0.53592,R,ugm-3,8.08669,R,ugm-3,8.90843,R,ugm-3,51.84496,R,ugm-3
12-01-2016,03:00,0.58748,R,ugm-3,10.13912,R,ugm-3,11.03991,R,ugm-3,51.28300,R,ugm-3
12-01-2016,04:00,0.37138,R,ugm-3,9.75949,R,ugm-3,10.32893,R,ugm-3,52.69696,R,ugm-3
12-01-2016,05:00,0.64953,R,ugm-3,7.95935,R,ugm-3,8.95528,R,ugm-3,54.98104,R,ugm-3
12-01-2016,06:00,0.74214,R,ugm-3,8.05449,R,ugm-3,9.19243,R,ugm-3,54.43721,R,ugm-3
12-01-2016,07:00,0.95886,R,ugm-3,13.64425,R,ugm-3,15.11449,R,ugm-3,49.65152,R,ugm-3
12-01-2016,08:00,1.14471,R,ugm-3,15.25506,R,ugm-3,17.01025,R,ugm-3,46.17102,R,ugm-3
12-01-2016,09:00,1.63926,R,ugm-3,27.66862,R,ugm-3,30.18212,R,ugm-3,31.54204,R,ugm-3
12-01-2016,10:00,2.96982,R,ugm-3,22.64448,R,ugm-3,27.19814,R,ugm-3,34.64186,R,ugm-3
12-01-2016,11:00,4.11391,R,ugm-3,24.82234,R,ugm-3,31.13024,R,ugm-3,34.69624,R,ugm-3
12-01-2016,12:00,3.87702,R,ugm-3,26.59076,R,ugm-3,32.53545,R,ugm-3,45.79034,R,ugm-3
12-01-2016,13:00,,,,,,,,,,,,
12-01-2016,14:00,1.57752,R,ugm-3,18.71333,R,ugm-3,21.13217,R,ugm-3,29.36673,R,ugm-3
12-01-2016,15:00,1.36112,R,ugm-3,17.67102,R,ugm-3,19.75804,R,ugm-3,36.87156,R,ugm-3
12-01-2016,16:00,1.48460,R,ugm-3,20.18309,R,ugm-3,22.45944,R,ugm-3,38.55742,R,ugm-3
12-01-2016,17:00,1.67045,R,ugm-3,27.24261,R,ugm-3,29.80392,R,ugm-3,31.75957,R,ugm-3
12-01-2016,18:00,2.28911,R,ugm-3,35.43815,R,ugm-3,38.94806,R,ugm-3,24.63542,R,ugm-3
12-01-2016,19:00,1.76306,R,ugm-3,30.36954,R,ugm-3,33.07286,R,ugm-3,29.52987,R,ugm-3